N0QWM Weather Reports


time (UTC)temp
C
wind
direction
speed
KPH
gust
KPH
rain 1hr
cm
rain 24hr
cm
rain mn
cm
humidity
%
barometer
mb
20260906110920 25 259 0.0 0.0 0.00 0.00 0.00 88 1018.1
20260906110415 25 298 0.0 0.0 0.00 0.00 0.00 87 1018.0
20260906105915 25 298 0.0 0.0 0.00 0.00 0.00 87 1018.0
20260906105410 25 250 1.6 1.6 0.00 0.00 0.00 86 1018.2
20260906104906 25 301 0.0 0.0 0.00 0.00 0.00 86 1018.3
20260906104405 25 288 0.0 0.0 0.00 0.00 0.00 85 1018.1
20260906103903 25 288 0.0 0.0 0.00 0.00 0.00 85 1018.3
20260906103402 26 313 0.0 1.6 0.00 0.00 0.00 84 1018.2
20260906102858 26 271 1.6 1.6 0.00 0.00 0.00 85 1018.3
20260906102357 26 101 0.0 1.6 0.00 0.00 0.00 85 1018.2
20260906101852 25 341 0.0 0.0 0.00 0.00 0.00 87 1018.1
20260906101347 25 315 0.0 1.6 0.00 0.00 0.00 91 1018.0
20260906100843 25 313 0.0 1.6 0.00 0.00 0.00 94 1017.9
20260906100342 25 327 1.6 1.6 0.00 0.00 0.00 95 1018.1
20260906095837 25 270 0.0 0.0 0.00 0.00 0.00 95 1017.8
20260906095333 25 270 0.0 0.0 0.00 0.00 0.00 95 1017.6
20260906094832 25 269 0.0 0.0 0.00 0.00 0.00 95 1017.4
20260906094327 25 269 0.0 0.0 0.00 0.00 0.00 96 1017.5
20260906093823 25 269 1.6 1.6 0.00 0.00 0.00 96 1017.5
20260906093319 25 288 0.0 0.0 0.00 0.00 0.00 96 1017.4
20260906092813 25 288 0.0 0.0 0.00 0.00 0.00 96 1017.2
20260906092308 25 288 0.0 0.0 0.00 0.00 0.00 96 1017.3
20260906091804 25 288 0.0 0.0 0.00 0.00 0.00 96 1017.3
20260906091300 25 288 0.0 0.0 0.00 0.00 0.00 96 1017.4
20260906090756 25 288 0.0 0.0 0.00 0.00 0.00 96 1017.3
20260906090255 25 288 0.0 0.0 0.00 0.00 0.00 96 1017.3
20260906085754 25 288 0.0 0.0 0.00 0.00 0.00 96 1017.1
20260906085253 25 289 0.0 0.0 0.00 0.00 0.00 96 1017.3
20260906084749 25 289 0.0 0.0 0.00 0.00 0.00 96 1017.2
20260906084248 25 289 0.0 0.0 0.00 0.00 0.00 96 1017.2
20260906083743 25 289 0.0 0.0 0.00 0.00 0.00 96 1017.4
20260906083239 25 288 0.0 0.0 0.00 0.00 0.00 96 1017.5
20260906082733 25 288 0.0 0.0 0.00 0.00 0.00 96 1017.7
20260906082229 25 289 0.0 0.0 0.00 0.00 0.00 96 1017.6
20260906081725 25 303 0.0 0.0 0.00 0.00 0.00 96 1017.7
20260906081219 25 304 0.0 0.0 0.00 0.00 0.00 96 1017.6
20260906080716 25 304 0.0 0.0 0.00 0.00 0.00 96 1017.8
20260906080212 25 298 0.0 0.0 0.00 0.00 0.00 96 1017.8
20260906075706 25 294 0.0 0.0 0.00 0.00 0.00 95 1017.7
20260906075201 25 293 0.0 0.0 0.00 0.00 0.00 95 1017.4
20260906074656 25 294 0.0 0.0 0.00 0.00 0.00 95 1017.6
20260906074155 25 294 0.0 0.0 0.00 0.00 0.00 95 1017.3
20260906073650 25 294 0.0 0.0 0.00 0.00 0.00 95 1017.4
20260906073140 25 294 0.0 0.0 0.00 0.00 0.00 95 1017.3
20260906072635 25 294 0.0 0.0 0.00 0.00 0.00 95 1017.4
20260906072130 25 294 0.0 0.0 0.00 0.00 0.00 95 1017.4
20260906071626 25 294 0.0 0.0 0.00 0.00 0.00 95 1017.2
20260906071121 25 282 0.0 0.0 0.00 0.00 0.00 95 1017.4
20260906070618 25 281 0.0 0.0 0.00 0.00 0.00 95 1017.4
20260906070113 25 282 0.0 0.0 0.00 0.00 0.00 95 1017.4
20260906065612 25 281 0.0 0.0 0.00 0.00 0.00 95 1017.6
20260906065108 25 281 0.0 0.0 0.00 0.00 0.00 95 1017.6
20260906064604 25 281 0.0 0.0 0.00 0.00 0.00 94 1017.6
20260906064058 25 281 0.0 0.0 0.00 0.00 0.00 94 1017.7
20260906063554 25 281 0.0 0.0 0.00 0.00 0.00 94 1017.9
20260906063049 25 282 0.0 0.0 0.00 0.00 0.00 94 1018.0
20260906062545 25 278 0.0 0.0 0.00 0.00 0.00 94 1018.0
20260906062038 25 278 0.0 0.0 0.00 0.00 0.00 94 1017.9
20260906061535 25 279 0.0 0.0 0.00 0.00 0.00 94 1017.9
20260906061034 25 278 0.0 0.0 0.00 0.00 0.00 94 1018.0
20260906060531 25 278 0.0 0.0 0.00 0.00 0.00 93 1017.9
20260906060028 25 278 0.0 0.0 0.00 0.00 0.00 93 1018.1
20260906055523 25 278 0.0 0.0 0.00 0.00 0.00 93 1017.9
20260906055019 25 278 0.0 0.0 0.00 0.00 0.00 92 1018.1
20260906054519 25 300 0.0 0.0 0.00 0.00 0.00 92 1018.2
20260906054014 25 300 0.0 0.0 0.00 0.00 0.00 92 1018.3
20260906053510 26 292 0.0 0.0 0.00 0.00 0.00 92 1018.2
20260906053005 26 292 0.0 0.0 0.00 0.00 0.00 91 1018.3
20260906052501 26 292 0.0 0.0 0.00 0.00 0.00 91 1018.0
20260906051958 25 307 0.0 0.0 0.00 0.00 0.00 92 1018.1
20260906051453 25 307 0.0 0.0 0.00 0.00 0.00 92 1018.3
20260906050949 25 307 0.0 0.0 0.00 0.00 0.00 92 1018.3
20260906050448 26 308 0.0 0.0 0.00 0.00 0.00 91 1018.2
20260906045948 26 308 0.0 0.0 0.00 0.00 0.00 91 1018.1
20260906045447 25 303 0.0 0.0 0.00 0.00 0.00 92 1018.1
20260906044943 25 287 0.0 0.0 0.00 0.00 0.00 92 1017.9
20260906044438 25 287 0.0 0.0 0.00 0.00 0.00 92 1017.9
20260906043933 25 287 0.0 0.0 0.00 0.00 0.00 92 1017.9
20260906043429 26 287 0.0 0.0 0.00 0.00 0.00 91 1018.1
20260906042925 26 287 0.0 0.0 0.00 0.00 0.00 91 1018.0
20260906042424 26 287 0.0 0.0 0.00 0.00 0.00 91 1018.2
20260906041919 26 287 0.0 0.0 0.00 0.00 0.00 91 1018.3
20260906041415 26 286 0.0 0.0 0.00 0.00 0.00 91 1018.2
20260906040915 26 286 0.0 0.0 0.00 0.00 0.00 90 1018.3
20260906040410 26 287 0.0 0.0 0.00 0.00 0.00 90 1018.2
20260906035905 26 286 0.0 0.0 0.00 0.00 0.00 90 1018.2
20260906035401 26 286 0.0 0.0 0.00 0.00 0.00 90 1018.0
20260906034855 26 286 0.0 0.0 0.00 0.00 0.00 90 1018.2
20260906034350 26 286 0.0 0.0 0.00 0.00 0.00 89 1018.2
20260906033846 26 286 0.0 0.0 0.00 0.00 0.00 89 1018.2
20260906033345 26 286 0.0 0.0 0.00 0.00 0.00 89 1018.3
20260906032842 26 286 0.0 0.0 0.00 0.00 0.00 89 1017.8
20260906032337 26 286 0.0 0.0 0.00 0.00 0.00 89 1018.2
20260906031832 26 286 0.0 0.0 0.00 0.00 0.00 89 1017.9
20260906031328 26 286 0.0 0.0 0.00 0.00 0.00 89 1018.1
20260906030827 26 284 0.0 0.0 0.00 0.00 0.00 88 1018.3
20260906030323 26 270 0.0 0.0 0.00 0.00 0.00 88 1018.1
20260906025817 26 273 0.0 0.0 0.00 0.00 0.00 88 1018.1
20260906025311 27 273 0.0 0.0 0.00 0.00 0.00 87 1018.1
20260906024810 27 273 0.0 0.0 0.00 0.00 0.00 87 1018.2
20260906024309 27 260 0.0 0.0 0.00 0.00 0.00 87 1018.2
20260906023805 27 260 0.0 0.0 0.00 0.00 0.00 86 1018.1
20260906023300 27 258 0.0 0.0 0.00 0.00 0.00 86 1018.1
20260906022756 27 258 0.0 0.0 0.00 0.00 0.00 86 1018.0
20260906022251 27 257 0.0 0.0 0.00 0.00 0.00 86 1018.1
20260906021747 27 258 0.0 0.0 0.00 0.00 0.00 86 1017.9
20260906021246 27 258 0.0 0.0 0.00 0.00 0.00 85 1018.0
20260906020741 27 258 0.0 0.0 0.00 0.00 0.00 85 1017.7
20260906020241 27 258 0.0 0.0 0.00 0.00 0.00 85 1018.0
20260906015735 27 257 0.0 0.0 0.00 0.00 0.00 85 1017.7
20260906015234 27 258 0.0 0.0 0.00 0.00 0.00 85 1017.7
20260906014729 27 258 0.0 0.0 0.00 0.00 0.00 84 1017.3
20260906014225 27 258 0.0 0.0 0.00 0.00 0.00 84 1017.5
20260906013721 27 258 0.0 0.0 0.00 0.00 0.00 84 1017.4
20260906013220 28 255 0.0 0.0 0.00 0.00 0.00 83 1017.2
20260906012715 28 254 0.0 1.6 0.00 0.00 0.00 83 1017.3
20260906012210 28 269 0.0 1.6 0.00 0.00 0.00 82 1017.0
20260906011706 28 243 0.0 0.0 0.00 0.00 0.00 82 1017.0
20260906011200 28 235 1.6 1.6 0.00 0.00 0.00 82 1016.7
20260906010655 28 299 0.0 1.6 0.00 0.00 0.00 82 1016.6
20260906010152 28 287 0.0 0.0 0.00 0.00 0.00 81 1016.7
20260906005651 28 287 0.0 0.0 0.00 0.00 0.00 81 1016.7
20260906005150 28 287 0.0 0.0 0.00 0.00 0.00 80 1016.8
20260906004649 28 276 0.0 0.0 0.00 0.00 0.00 81 1016.6
20260906004145 28 269 0.0 0.0 0.00 0.00 0.00 81 1016.6
20260906003640 28 289 0.0 0.0 0.00 0.00 0.00 81 1016.6
20260906003135 28 280 1.6 3.2 0.00 0.00 0.00 81 1016.5
20260906002630 29 255 1.6 1.6 0.00 0.00 0.00 80 1016.5
20260906002125 29 255 0.0 0.0 0.00 0.00 0.00 80 1016.6
20260906001621 29 265 1.6 1.6 0.00 0.00 0.00 80 1016.9
20260906001120 29 280 0.0 0.0 0.00 0.00 0.00 79 1016.7
20260906000616 30 257 3.2 4.8 0.00 0.00 0.00 79 1016.8
20260906000112 30 210 0.0 1.6 0.00 0.00 0.00 78 1016.7
20260905235610 30 292 1.6 3.2 0.00 0.00 0.00 78 1016.9
20260905235106 30 289 0.0 1.6 0.00 0.00 0.00 78 1016.8
20260905234601 30 281 1.6 3.2 0.00 0.00 0.00 78 1016.6
20260905234056 30 288 0.0 1.6 0.00 0.00 0.00 78 1016.8
20260905233556 30 219 0.0 1.6 0.00 0.00 0.00 78 1016.7
20260905233050 30 268 4.8 9.7 0.00 0.00 0.00 77 1016.9
20260905232546 30 236 1.6 3.2 0.00 0.00 0.00 77 1016.8
20260905232042 31 248 3.2 3.2 0.00 0.00 0.00 76 1016.8
20260905231536 31 276 0.0 1.6 0.00 0.00 0.00 77 1016.8
20260905231033 31 249 3.2 3.2 0.00 0.00 0.00 77 1016.7
20260905230532 31 280 1.6 3.2 0.00 0.00 0.00 76 1016.5
20260905230031 31 298 3.2 4.8 0.00 0.00 0.00 76 1016.7
20260905225525 31 250 1.6 1.6 0.00 0.00 0.00 76 1016.8
20260905225021 31 284 6.4 8.0 0.00 0.00 0.00 75 1016.7
20260905224515 31 261 0.0 1.6 0.00 0.00 0.00 75 1016.5
20260905224014 32 271 6.4 11.3 0.00 0.00 0.00 74 1016.6
20260905223513 32 261 4.8 4.8 0.00 0.00 0.00 73 1016.3
20260905223008 32 267 3.2 4.8 0.00 0.00 0.00 71 1016.4
20260905222508 33 155 4.8 8.0 0.00 0.00 0.00 70 1016.4
20260905222003 33 286 4.8 4.8 0.00 0.00 0.00 69 1016.4
20260905221500 33 203 3.2 3.2 0.00 0.00 0.00 68 1016.5
20260905220955 33 281 3.2 3.2 0.00 0.00 0.00 67 1016.4
20260905220451 34 290 8.0 11.3 0.00 0.00 0.00 67 1016.5
20260905215950 34 300 1.6 1.6 0.00 0.00 0.00 66 1016.3
20260905215446 34 259 3.2 8.0 0.00 0.00 0.00 66 1016.3
20260905214942 35 244 0.0 0.0 0.00 0.00 0.00 66 1016.0
20260905214438 34 256 1.6 3.2 0.00 0.00 0.00 65 1016.1
20260905213938 34 283 3.2 3.2 0.00 0.00 0.00 66 1016.0
20260905213434 35 277 4.8 8.0 0.00 0.00 0.00 65 1016.1
20260905212929 35 281 3.2 3.2 0.00 0.00 0.00 64 1016.2
20260905212424 34 179 3.2 3.2 0.00 0.00 0.00 65 1016.3
20260905211923 33 64 1.6 1.6 0.00 0.00 0.00 66 1016.2
20260905211419 34 330 1.6 3.2 0.00 0.00 0.00 65 1016.2
20260905210915 34 290 1.6 3.2 0.00 0.00 0.00 62 1016.3
20260905210415 35 289 4.8 4.8 0.00 0.00 0.00 61 1016.2
20260905205914 35 252 1.6 3.2 0.00 0.00 0.00 60 1016.2
20260905205409 36 17 1.6 4.8 0.00 0.00 0.00 59 1016.3
20260905204908 36 268 0.0 1.6 0.00 0.00 0.00 56 1016.4
20260905204404 36 303 1.6 1.6 0.00 0.00 0.00 55 1016.5
20260905203903 36 259 3.2 3.2 0.00 0.00 0.00 57 1016.5
20260905203359 36 287 0.0 0.0 0.00 0.00 0.00 57 1016.5
20260905202854 37 325 3.2 4.8 0.00 0.00 0.00 55 1016.5
20260905202349 36 307 1.6 3.2 0.00 0.00 0.00 56 1016.7
20260905201845 36 248 1.6 1.6 0.00 0.00 0.00 60 1016.7
20260905201340 36 253 0.0 0.0 0.00 0.00 0.00 59 1016.6
20260905200840 36 266 4.8 4.8 0.00 0.00 0.00 60 1016.7
20260905200336 36 266 1.6 1.6 0.00 0.00 0.00 59 1016.7
20260905195834 35 239 6.4 8.0 0.00 0.00 0.00 61 1017.0
20260905195329 36 265 6.4 9.7 0.00 0.00 0.00 60 1017.1
20260905194825 35 282 3.2 3.2 0.00 0.00 0.00 60 1016.7
20260905194325 35 272 3.2 3.2 0.00 0.00 0.00 60 1016.9
20260905193824 35 259 3.2 8.0 0.00 0.00 0.00 61 1016.9
20260905193319 35 281 3.2 4.8 0.00 0.00 0.00 64 1016.8
20260905192815 35 292 1.6 3.2 0.00 0.00 0.00 63 1016.9
20260905192311 34 123 4.8 8.0 0.00 0.00 0.00 64 1017.3
20260905191809 33 238 4.8 8.0 0.00 0.00 0.00 67 1017.2
20260905191308 33 164 3.2 3.2 0.00 0.00 0.00 67 1017.6
20260905190807 33 293 6.4 9.7 0.00 0.00 0.00 67 1017.4
20260905190307 34 253 8.0 11.3 0.00 0.00 0.00 66 1017.5
20260905185806 34 3 1.6 1.6 0.00 0.00 0.00 65 1017.6
20260905185305 35 248 1.6 1.6 0.00 0.00 0.00 64 1017.6
20260905184801 36 269 0.0 1.6 0.00 0.00 0.00 61 1017.6
20260905184300 36 103 4.8 4.8 0.00 0.00 0.00 59 1018.0
20260905183759 37 198 3.2 3.2 0.00 0.00 0.00 50 1017.8
20260905183254 36 230 1.6 3.2 0.00 0.00 0.00 52 1017.8
20260905182753 36 273 1.6 3.2 0.00 0.00 0.00 51 1017.8
20260905182248 35 99 8.0 9.7 0.00 0.00 0.00 52 1018.0
20260905181743 36 105 1.6 3.2 0.00 0.00 0.00 52 1018.0
20260905181243 36 144 3.2 3.2 0.00 0.00 0.00 50 1018.1
20260905180738 37 272 1.6 1.6 0.00 0.00 0.00 49 1018.1
20260905180233 36 261 1.6 1.6 0.00 0.00 0.00 52 1018.2
20260905175732 36 307 3.2 3.2 0.00 0.00 0.00 52 1018.3
20260905175227 36 287 1.6 1.6 0.00 0.00 0.00 51 1018.3
20260905174722 35 259 0.0 1.6 0.00 0.00 0.00 52 1018.5
20260905174218 35 42 3.2 3.2 0.00 0.00 0.00 53 1018.7
20260905173714 36 136 4.8 4.8 0.00 0.00 0.00 52 1018.7
20260905173210 36 103 4.8 4.8 0.00 0.00 0.00 51 1019.0
20260905172709 35 275 1.6 1.6 0.00 0.00 0.00 55 1019.1
20260905172203 35 161 8.0 11.3 0.00 0.00 0.00 52 1019.1
20260905171659 35 228 1.6 1.6 0.00 0.00 0.00 54 1018.9
20260905171155 35 187 1.6 1.6 0.00 0.00 0.00 54 1019.2
20260905170652 35 101 1.6 3.2 0.00 0.00 0.00 56 1019.0
20260905170147 35 194 3.2 3.2 0.00 0.00 0.00 54 1019.2
20260905165646 35 272 0.0 0.0 0.00 0.00 0.00 52 1019.3
20260905165142 36 303 3.2 3.2 0.00 0.00 0.00 52 1019.6
20260905164637 36 248 1.6 1.6 0.00 0.00 0.00 55 1019.4
20260905164136 35 277 3.2 4.8 0.00 0.00 0.00 56 1019.5
20260905163632 35 45 1.6 3.2 0.00 0.00 0.00 54 1019.5
20260905163128 34 260 0.0 1.6 0.00 0.00 0.00 60 1019.5
20260905162624 33 187 1.6 1.6 0.00 0.00 0.00 61 1019.8
20260905162123 33 280 1.6 1.6 0.00 0.00 0.00 62 1019.4
20260905161618 34 166 1.6 1.6 0.00 0.00 0.00 60 1019.8
20260905161115 34 279 1.6 1.6 0.00 0.00 0.00 60 1019.9
20260905160615 35 307 3.2 3.2 0.00 0.00 0.00 59 1019.9
20260905160109 35 283 0.0 1.6 0.00 0.00 0.00 60 1019.8
20260905155604 34 266 0.0 1.6 0.00 0.00 0.00 64 1019.7
20260905155103 34 264 1.6 3.2 0.00 0.00 0.00 61 1019.8
20260905154557 34 263 1.6 1.6 0.00 0.00 0.00 60 1019.7
20260905154053 34 268 0.0 1.6 0.00 0.00 0.00 61 1019.6
20260905153549 33 153 0.0 1.6 0.00 0.00 0.00 63 1019.5
20260905153048 33 235 0.0 1.6 0.00 0.00 0.00 65 1019.8
20260905152543 33 304 1.6 1.6 0.00 0.00 0.00 67 1019.6
20260905152039 32 314 3.2 3.2 0.00 0.00 0.00 70 1019.7
20260905151533 33 103 4.8 4.8 0.00 0.00 0.00 64 1019.6
20260905151028 33 313 3.2 3.2 0.00 0.00 0.00 66 1019.8
20260905150524 33 307 1.6 3.2 0.00 0.00 0.00 65 1019.8
20260905150021 33 332 1.6 3.2 0.00 0.00 0.00 67 1019.9
20260905145515 32 286 0.0 1.6 0.00 0.00 0.00 69 1019.6
20260905145015 32 312 1.6 1.6 0.00 0.00 0.00 71 1019.7
20260905144510 32 2 0.0 1.6 0.00 0.00 0.00 69 1019.6
20260905144009 32 171 4.8 4.8 0.00 0.00 0.00 70 1019.8
20260905143508 32 273 0.0 1.6 0.00 0.00 0.00 71 1020.0
20260905143003 31 234 1.6 1.6 0.00 0.00 0.00 72 1020.0
20260905142501 31 267 0.0 1.6 0.00 0.00 0.00 75 1019.9
20260905141957 31 0 1.6 1.6 0.00 0.00 0.00 74 1019.8
20260905141452 31 288 0.0 0.0 0.00 0.00 0.00 74 1019.9
20260905140948 31 257 0.0 1.6 0.00 0.00 0.00 74 1019.9
20260905140443 30 219 1.6 3.2 0.00 0.00 0.00 75 1020.2
20260905135942 30 276 0.0 0.0 0.00 0.00 0.00 76 1019.9
20260905135438 30 273 0.0 0.0 0.00 0.00 0.00 77 1020.1
20260905134933 28 254 0.0 1.6 0.00 0.00 0.00 80 1020.1
20260905134432 28 323 1.6 1.6 0.00 0.00 0.00 82 1020.0
20260905133931 28 255 1.6 1.6 0.00 0.00 0.00 83 1019.7
20260905133426 27 297 0.0 0.0 0.00 0.00 0.00 85 1019.9
20260905132926 27 285 0.0 1.6 0.00 0.00 0.00 87 1020.0
20260905132421 26 307 1.6 1.6 0.00 0.00 0.00 88 1020.1
20260905131916 26 289 0.0 1.6 0.00 0.00 0.00 88 1020.1
20260905131412 26 291 0.0 0.0 0.00 0.00 0.00 89 1020.1
20260905130906 26 274 0.0 0.0 0.00 0.00 0.00 90 1020.0
20260905130406 25 297 1.6 1.6 0.00 0.00 0.00 92 1020.4
20260905125901 25 297 0.0 0.0 0.00 0.00 0.00 93 1020.1
20260905125355 25 296 0.0 0.0 0.00 0.00 0.00 94 1020.4
20260905124851 24 298 0.0 0.0 0.00 0.00 0.00 95 1020.3
20260905124348 23 298 0.0 0.0 0.00 0.00 0.00 97 1020.4
20260905123842 23 298 0.0 0.0 0.00 0.00 0.00 97 1020.3
20260905123339 23 298 0.0 0.0 0.00 0.00 0.00 98 1020.4
20260905122839 23 298 0.0 0.0 0.00 0.00 0.00 98 1020.2
20260905122338 23 298 0.0 0.0 0.00 0.00 0.00 99 1020.3
20260905121833 23 298 0.0 0.0 0.00 0.00 0.00 99 1020.2
20260905121330 23 298 0.0 0.0 0.00 0.00 0.00 99 1020.1
20260905120828 22 298 0.0 0.0 0.00 0.00 0.00 99 1020.1
20260905120323 22 298 0.0 0.0 0.00 0.00 0.00 99 1020.0
20260905115818 22 298 0.0 0.0 0.00 0.00 0.00 99 1019.7
20260905115318 22 298 0.0 0.0 0.00 0.00 0.00 99 1019.8
20260905114817 22 298 0.0 0.0 0.00 0.00 0.00 99 1020.0
20260905114317 22 298 0.0 0.0 0.00 0.00 0.00 99 1019.9
20260905113816 22 298 0.0 0.0 0.00 0.00 0.00 99 1019.7
20260905113312 22 298 0.0 0.0 0.00 0.00 0.00 99 1020.0
20260905112807 22 298 0.0 0.0 0.00 0.00 0.00 99 1020.0
20260905112305 22 298 0.0 0.0 0.00 0.00 0.00 99 1019.8
20260905111756 22 298 0.0 0.0 0.00 0.00 0.00 99 1019.8
20260905111251 22 298 0.0 0.0 0.00 0.00 0.00 99 1019.8